Find Helusi 1

NORAD ID: 55690 Int'l Des: 2023-025 Owner: EGYSA Country: EG operational
LEOCIRCULARRETROGRADESSO

Live-Position

3D-Globus wird geladen...

Über Helusi 1

Beschreibung wird geladen...

Nächste Überflüge

Passes for default location (London). Set your location on the main map for personalized predictions.

Höhenverlauf

Loading altitude history...

Zweizeiliger Elementsatz

1 55690U 23025A 26106.73851910 .00000285 00000-0 14929-4 0 9990
2 55690 97.3482 182.6159 0001211 126.2778 233.8571 15.23269357174699
Epoch: 16. Apr. 2026 • Age: 9 hours

Aktueller Status

Höhe 499.8 km
Geschwindigkeit 7.62 km/s
Subsatellitenpunkt 33.75°N, 128.96°E
Startdatum 24. Feb. 2023
Alter 3.1 years
Typ other

Technische Details

Klassifizierung Payload
Masse 330.00 kg
Trockenmasse 330.00 kg
Gesamtmasse 330.00 kg
Länge 1.50 m
Durchmesser 1.00 m
Spannweite 4.00 m
Form Box + 2 Pan
Hersteller DFHZ
Bus-Typ CAST-2000
Phasenstatus In Orbit
Besitzer/Staat EGYSA/EG

Most Searched